Location: Shenandoah County Park
(38.9356°N, 78.4524°W)
Time: 10:40:33
(UTC-04:00)

NOAA 19 - Visible Passes

Search period start: 21 March 2023 00:00
Search period end: 31 March 2023 00:00
Orbit: 839 x 861 km, 99.1° (Epoch: 21 March)

Date Brightness Start Highest point End Pass type
(mag) Time Alt. Az. Time Alt. Az. Time Alt. Az.
21 Mar 6.2 20:04:51 10° ESE 20:09:23 27° ENE 20:13:55 10° N visible
21 Mar 6.4 21:45:26 14° SSW 21:49:49 39° W 21:54:56 10° NNW visible
22 Mar 6.5 19:53:26 10° ESE 19:57:30 22° ENE 20:01:34 10° NNE visible
22 Mar 6.0 21:33:13 14° S 21:37:46 50° W 21:43:05 10° NNW visible
23 Mar 5.5 21:21:00 14° S 21:25:43 65° WSW 21:31:11 10° NNW visible
24 Mar 5.2 21:08:47 13° SSE 21:13:42 83° WSW 21:19:12 10° NNW visible
25 Mar 5.1 20:56:34 12° SSE 21:01:42 77° ENE 21:07:11 10° N visible
25 Mar 7.9 22:40:37 10° WSW 22:42:53 12° W 22:45:08 10° WNW visible
26 Mar 5.2 20:44:20 10° SSE 20:49:43 60° ENE 20:55:06 10° N visible
26 Mar 7.6 22:27:19 10° SW 22:30:43 17° W 22:34:08 10° NW visible
27 Mar 5.5 20:32:32 10° SE 20:37:45 47° ENE 20:42:58 10° N visible
27 Mar 7.3 22:14:27 10° SW 22:18:35 22° W 22:22:44 10° NW visible
28 Mar 5.8 20:20:51 10° SE 20:25:49 37° ENE 20:30:47 10° N visible
28 Mar 7.0 22:01:53 10° SSW 22:06:28 28° W 22:11:07 10° NW visible
29 Mar 6.1 20:09:16 10° SE 20:13:54 29° ENE 20:18:32 10° N visible
29 Mar 6.5 21:49:40 11° SSW 21:54:23 36° W 21:59:24 10° NNW visible
30 Mar 6.4 19:57:49 10° ESE 20:02:00 23° ENE 20:06:12 10° NNE visible
30 Mar 6.1 21:37:27 12° S 21:42:19 46° W 21:47:34 10° NNW visible
